Regional Weather Roundup
Issued by NWS

Home | Current Version | Previous Version | Graphics & Text | Print | Product List | Glossary On
Versions: 1 2 3 4 5 6 7 8 9 10 11 12 13 14 15 16 17 18 19 20 21 22 23 24 25 26 27 28 29 30 31 32 33 34 35 36 37 38 39 40 41 42 43 44 45 46 47 48 49 50
000
ASUS43 KLOT 230504
RWRIL

ILLINOIS REGIONAL WEATHER ROUNDUP
NATIONAL WEATHER SERVICE CHICAGO/ROMEOVILLE IL
1200 AM CDT SAT SEP 23 2017

NOTE: "FAIR" INDICATES FEW OR NO CLOUDS BELOW 12,000 FEET WITH NO
SIGNIFICANT WEATHER AND/OR OBSTRUCTIONS TO VISIBILITY.

* THESE STATIONS ARE NOT UNDER NWS QUALITY CONTROL. THEY ALSO MAY NOT
  REPORT WEATHER SUCH AS PRECIPITATION OR FOG.

ILZ001-002-007-009-015-016-024-230600-
NORTHWEST ILLINOIS

CITY           SKY/WX    TMP DP  RH WIND       PRES   REMARKS
MOLINE         CLEAR     73  65  75 CALM      29.99S
STERLING*      CLEAR     69  65  86 SE3       30.02S
SAVANNA*       CLEAR     68  66  93 E3        30.01S
$$

ILZ003-004-008-010-011-017-018-230600-
NORTH CENTRAL ILLINOIS

CITY           SKY/WX    TMP DP  RH WIND       PRES   REMARKS
ROCKFORD       CLEAR     74  64  71 S3        30.04S
FREEPORT*      CLEAR     71  64  78 S6        30.04R
ROCHELLE*      CLEAR     69  64  86 CALM      30.04S
DE KALB*       CLEAR     71  65  82 S5        30.06R
$$

ILZ005-006-012>014-019>023-230600-
NORTHEAST ILLINOIS

CITY           SKY/WX    TMP DP  RH WIND       PRES   REMARKS
CHICAGO-OHARE  CLEAR     77  66  68 SE3       30.03S
CHICAGO-MIDWAY CLEAR     82  68  62 SE3       30.04S HX  85
AURORA         CLEAR     71  66  84 CALM      30.04S
LANSING*       CLEAR     73  69  88 CALM      30.05S
JOLIET*        CLEAR     74  69  85 CALM      30.04S
WAUKEGAN       CLEAR     79  67  66 S8        30.03F HX  81
DUPAGE AIRPORT CLEAR     72  66  81 CALM      30.04S
KANKAKEE*      PTCLDY    71  68  91 CALM      30.05S
WHEELING       CLEAR     76  70  82 CALM      30.05R HAZE
MORRIS*        CLEAR     75  67  75 CALM      30.03S
NORTHERLY ISL    N/A     73  67  81 CALM        N/A
$$

LMZ740>746-230600-
SOUTHERN LAKE MICHIGAN

STATION/POSITION SKY/WX   TEMP    WIND        PRES    VSBY  WAVE
                          AIR SEA DIR/SP/G                  HT/PER
                          (F)     (DEG/KT/KT) (MB)    (MI)  (FT/S)
SOUTHERN BUOY              73 70  140/  8/  8 1016.9          0
WILMETTE HARBOR            74 72  160/  6/  8   N/A           1/ 2
HARRISON CRIB              77     180/  6/  7   N/A
BURNHAM HARBOR             72                   N/A
CALUMET HARBOR             80     120/  3/  3 1016.7F
BURNS HARBOR               80     170/  3/  9 1017.6F
MICHIGAN CITY              79     140/  7/  8   N/A
MICHIGAN CITY 6N           75 72  180/  2/  2   N/A           0
ST. JOSEPH                 74 72  160/  4/  6 1017.3S         0
$$

ILZ025>027-034>036-040-047-049-050-058-095>099-230600-
WEST-CENTRAL ILLINOIS

CITY           SKY/WX    TMP DP  RH WIND       PRES   REMARKS
QUINCY         CLEAR     75  62  64 SE6       30.00S
GALESBURG*     CLEAR     72  65  77 E6        30.02S
MACOMB*        CLEAR     66  63  90 CALM      30.03S
$$

ILZ028>032-037-038-041>044-048-051>054-059>061-230600-
CENTRAL ILLINOIS

CITY           SKY/WX    TMP DP  RH WIND       PRES   REMARKS
BLOOMINGTON    PTCLDY    77  65  66 SE12      30.05F
DECATUR        PTCLDY    70  65  84 CALM      30.04S
PEORIA         CLEAR     78  65  63 SE3       30.02S HX  80
LACON*         CLEAR     74  66  75 CALM      30.01S
LINCOLN*       CLEAR     73  67  79 CALM      30.03S
SPRINGFIELD    CLEAR     75  66  73 SE3       30.02S
TAYLORVILLE    NOT AVBL
$$

ILZ033-039-045-046-055>057-062-063-230600-
EAST-CENTRAL ILLINOIS

CITY           SKY/WX    TMP DP  RH WIND       PRES   REMARKS
CHAMPAIGN      MOCLDY    73  65  75 SE5       30.05S
MATTOON        CLEAR     75  68  78 S5        30.04S
PARIS*         CLEAR     70  70  99 CALM      30.06S
$$

ILZ079-100>102-230600-
SOUTHWEST ILLINOIS

CITY           SKY/WX    TMP DP  RH WIND       PRES   REMARKS
ALTON          CLEAR     70  66  88 CALM      30.02S
CAHOKIA*       CLEAR     73  64  73 S3        30.01R
SPARTA*        CLEAR     74  66  76 SE3       30.03S
$$

ILZ064>066-069>071-074>076-080>082-084>086-088>090-092>094-230600-
SOUTH-CENTRAL ILLINOIS

CITY           SKY/WX    TMP DP  RH WIND       PRES   REMARKS
CARBONDALE     CLEAR     68  68 100 CALM      30.02S
EFFINGHAM*     CLEAR     72  67  85 CALM      30.05S
MARION         CLEAR     73  68  83 CALM      30.03S
MT. VERNON       N/A     67  66  97 CALM      30.03S
CENTRALIA*     CLEAR     72  67  86 CALM      30.02S
SALEM*         CLEAR     77  66  68 CALM      30.03S
METROPOLIS*    CLEAR     69  67  94 CALM      30.02S
$$

ILZ067-068-072-073-078-083-087-091-230600-
SOUTHEAST ILLINOIS

CITY           SKY/WX    TMP DP  RH WIND       PRES   REMARKS
LAWRENCEVILLE  CLEAR     72  70  93 NE3       30.04S
FLORA*         CLEAR     73  68  84 CALM      30.04R
FAIRFIELD*     CLEAR     69  65  87 CALM      30.02S
HARRISBURG*    CLEAR     68  66  93 CALM      30.03S
ROBINSON*      CLEAR     67  66  99 CALM      30.05S
CARMI*         CLEAR     68  67  97 CALM      30.02F
$$

ABBREVIATIONS USED IN REMARKS
   TC - TEMPERATURE IN CELSIUS
  WCI - WIND CHILL INDEX
   HX - HEAT INDEX
  VSB - VISIBILITY
$$





USA.gov is the U.S. government's official web portal to all federal, state and local government web resources and services.